HELLAS-SAT 3

Last updated on Sat Aug 15 2026 00:03:01 GMT+0000 (Coordinated Universal Time)

1 42814U 17040A 26226.57559610 .00000137 00000+0 00000+0 0 9996 2 42814 0.0613 54.7208 0002694 30.1430 124.3236 1.00272832 33393
UTC large
Height (km)
Speed (km/s)
/
Latitude / Longitude
Inclination (degrees)
Orbital Period (minutes)
Azimuth
Elevation
Range (km)
Doppler Factor

Next 0 passes for location: London (51.5072 / 0.1276)

No passes found over London.
HELLAS-SAT 3